Regional Weather Roundup
Issued by NWS

Home | Current Version | Previous Version | Graphics & Text | Print | Product List | Glossary On
Versions: 1 2 3 4 5 6 7 8 9 10 11 12 13 14 15 16 17 18 19 20 21 22 23 24 25 26 27 28 29 30 31 32 33 34 35 36 37 38 39 40 41 42 43 44 45 46 47 48 49 50
000
ASUS43 KLOT 192309
RWRIL

ILLINOIS REGIONAL WEATHER ROUNDUP
NATIONAL WEATHER SERVICE CHICAGO/ROMEOVILLE IL
600 PM CDT THU OCT 19 2017

NOTE: "FAIR" INDICATES FEW OR NO CLOUDS BELOW 12,000 FEET WITH NO
SIGNIFICANT WEATHER AND/OR OBSTRUCTIONS TO VISIBILITY.

* THESE STATIONS ARE NOT UNDER NWS QUALITY CONTROL. THEY ALSO MAY NOT
  REPORT WEATHER SUCH AS PRECIPITATION OR FOG.

ILZ001-002-007-009-015-016-024-200000-
NORTHWEST ILLINOIS

CITY           SKY/WX    TMP DP  RH WIND       PRES   REMARKS
MOLINE         CLEAR     70  51  51 SE5       30.10R
STERLING*      CLOUDY    68  41  37 SE5         N/A
SAVANNA*       CLOUDY    67  38  34 E5        30.11F
$$

ILZ003-004-008-010-011-017-018-200000-
NORTH CENTRAL ILLINOIS

CITY           SKY/WX    TMP DP  RH WIND       PRES   REMARKS
ROCKFORD       MOCLDY    63  36  36 S8        30.15S
FREEPORT*      CLOUDY    63  33  32 SE6       30.15S
ROCHELLE*      CLOUDY    65  34  31 SE5       30.15S
DE KALB*       CLOUDY    62  35  36 SE6       30.16S
PERU*          CLEAR     68  42  38 E6        30.14S
$$

ILZ005-006-012>014-019>023-200000-
NORTHEAST ILLINOIS

CITY           SKY/WX    TMP DP  RH WIND       PRES   REMARKS
CHICAGO-OHARE  CLOUDY    61  26  26 SE9       30.16S
CHICAGO-MIDWAY CLOUDY    63  28  26 VRB7      30.17S
AURORA         CLOUDY    63  39  41 SE5       30.16S
LANSING*       CLOUDY    61  37  42 E3        30.18S
JOLIET*        CLOUDY    63  47  55 CALM      30.16S
WAUKEGAN       CLEAR     57  29  34 S8        30.16R
DUPAGE AIRPORT CLOUDY    61  37  41 S6        30.15S
KANKAKEE*      CLEAR     68  43  40 E3        30.16F
WHEELING       CLOUDY    62  27  26 SE6       30.17F
MORRIS*        CLOUDY    68  34  28 E3        30.14S
ROMEOVILLE*    CLOUDY    64  37  36 SE5       30.16S
NORTHERLY ISL    N/A     58  46  64 SE5         N/A
$$

LMZ740>746-200000-
SOUTHERN LAKE MICHIGAN

STATION/POSITION SKY/WX   TEMP    WIND        PRES    VSBY  WAVE
                          AIR SEA DIR/SP/G                  HT/PER
                          (F)     (DEG/KT/KT) (MB)    (MI)  (FT/S)
SOUTHERN BUOY              60 61  210/ 10/ 12 1021.4          1/ 4
WILMETTE HARBOR            59 58  150/  6/  8   N/A           1/ 2
HARRISON CRIB              61     140/  8/  9   N/A
BURNHAM HARBOR             57     120/  5/  7   N/A
CALUMET HARBOR             60      90/  6/  8 1021.2F
BURNS HARBOR               60      80/  6/  7 1022.4F
MICHIGAN CITY              59     100/  1/  1   N/A
MICHIGAN CITY 6N           58 59  160/  2/  2   N/A           1/ 5
ST. JOSEPH                 59 59  240/  4/  4 1022.5          2/ 5
$$

ILZ025>027-034>036-040-047-049-050-058-095>099-200000-
WEST-CENTRAL ILLINOIS

CITY           SKY/WX    TMP DP  RH WIND       PRES   REMARKS
QUINCY         CLEAR     72  51  47 SE5       30.11S
GALESBURG*     CLEAR     77  61  57 SE3       30.12S
MACOMB*        CLEAR     71  52  50 S6        30.13S
JACKSONVILLE*  CLEAR     73  51  45 S6        30.13S
PITTSFIELD*    CLEAR     73  53  49 SE6       30.14R
$$

ILZ028>032-037-038-041>044-048-051>054-059>061-200000-
CENTRAL ILLINOIS

CITY           SKY/WX    TMP DP  RH WIND       PRES   REMARKS
PONTIAC        CLEAR     71  51  48 E3        30.15S
BLOOMINGTON    CLEAR     71  53  52 S3        30.15S
DECATUR        CLEAR     71  51  49 S5        30.15S
PEORIA         CLEAR     71  54  54 CALM      30.12S
LACON*         CLEAR     70  52  52 CALM      30.12S
LINCOLN*       CLEAR     74  53  48 CALM      30.14S
SPRINGFIELD    CLEAR     74  52  46 S6        30.14R
TAYLORVILLE    CLEAR     71  50  47 S5        30.15S
$$

ILZ033-039-045-046-055>057-062-063-200000-
EAST-CENTRAL ILLINOIS

CITY           SKY/WX    TMP DP  RH WIND       PRES   REMARKS
CHAMPAIGN      CLEAR     70  50  49 S7        30.16R
DANVILLE*      CLEAR     71  52  49 CALM      30.14R
RANTOUL*       CLEAR     74  56  54 CALM      30.15S
MATTOON        CLEAR     69  54  58 CALM      30.16R
PARIS*         CLEAR     66  52  61 S7        30.17S
$$

ILZ079-100>102-200000-
SOUTHWEST ILLINOIS

CITY           SKY/WX    TMP DP  RH WIND       PRES   REMARKS
ALTON          CLEAR     72  55  56 S6        30.15R
BELLEVILLE     CLEAR     73  47  39 SE5       30.16S
CAHOKIA*       CLEAR     78  48  34 SE3       30.13S
SPARTA*        CLEAR     74  50  42 SE5       30.17R
$$

ILZ064>066-069>071-074>076-080>082-084>086-088>090-092>094-200000-
SOUTH-CENTRAL ILLINOIS

CITY           SKY/WX    TMP DP  RH WIND       PRES   REMARKS
CARBONDALE     CLEAR     70  54  56 S6        30.17S
CAIRO*         CLEAR     69  53  57 CALM      30.18S
EFFINGHAM*     CLEAR     74  49  42 CALM      30.18S
MARION         CLEAR     72  54  53 S9        30.19R
MT. VERNON     CLEAR     70  54  56 S3        30.17S
CENTRALIA*     CLEAR     73  51  45 S7        30.16R
SALEM*         CLEAR     75  49  39 S3        30.17R
METROPOLIS*    CLEAR     72  52  49 CALM      30.19S
$$

ILZ067-068-072-073-078-083-087-091-200000-
SOUTHEAST ILLINOIS

CITY           SKY/WX    TMP DP  RH WIND       PRES   REMARKS
LAWRENCEVILLE  CLEAR     70  54  56 S7        30.18S
FLORA*         CLEAR     72  53  50 S3        30.18R
FAIRFIELD*     CLEAR     73  50  44 CALM      30.17R
HARRISBURG*    CLEAR     72  53  50 SW5       30.18S
ROBINSON*      CLEAR     71  52  51 S3        30.19R
CARMI*         CLEAR     70  53  53 S7        30.18R
$$

ABBREVIATIONS USED IN REMARKS
   TC - TEMPERATURE IN CELSIUS
  WCI - WIND CHILL INDEX
   HX - HEAT INDEX
  VSB - VISIBILITY
$$





USA.gov is the U.S. government's official web portal to all federal, state and local government web resources and services.